This is the latest recevied weather packets stored in our database for station/object PA3CPS. If no packets are shown the sender has not sent any weather packets the latest 10 day(s).
| Time | Temp. | Humidity | Pressure | Rain* | Wind** | Luminosity | Snow |
|---|---|---|---|---|---|---|---|
| 1777535616 | 13.33° C | 39% | 1029.5 hPa | 0 mm | - | 441 W/m² | - |
| 1777535316 | 13.33° C | 41% | 1029.6 hPa | 0 mm | - | 545 W/m² | - |
| 1777535012 | 12.78° C | 43% | 1029.7 hPa | 0 mm | - | 513 W/m² | - |
| 1777534712 | 12.78° C | 43% | 1029.7 hPa | 0 mm | - | 512 W/m² | - |
| 1777534412 | 12.22° C | 43% | 1029.8 hPa | 0 mm | - | 501 W/m² | - |
| 1777534113 | 12.22° C | 45% | 1029.9 hPa | 0 mm | - | 489 W/m² | - |
| 1777533811 | 12.22° C | 44% | 1029.9 hPa | 0 mm | - | 473 W/m² | - |
| 1777533511 | 11.67° C | 44% | 1029.7 hPa | 0 mm | - | 455 W/m² | - |
| 1777533215 | 11.67° C | 45% | 1029.8 hPa | 0 mm | - | 441 W/m² | - |
| 1777532908 | 11.67° C | 47% | 1029.9 hPa | 0 mm | - | 429 W/m² | - |
| 1777532605 | 11.11° C | 47% | 1029.8 hPa | 0 mm | - | 411 W/m² | - |
| 1777532304 | 11.11° C | 48% | 1029.8 hPa | 0 mm | - | 388 W/m² | - |
| 1777532003 | 10.56° C | 49% | 1029.9 hPa | 0 mm | - | 353 W/m² | - |
| 1777531699 | 10.56° C | 49% | 1029.8 hPa | 0 mm | - | 236 W/m² | - |
| 1777531402 | 10.56° C | 50% | 1029.8 hPa | 0 mm | - | 353 W/m² | - |
| 1777531097 | 9.44° C | 51% | 1029.7 hPa | 0 mm | - | 332 W/m² | - |
| 1777530796 | 8.89° C | 56% | 1029.6 hPa | 0 mm | - | 137 W/m² | - |
| 1777530497 | 8.33° C | 57% | 1029.6 hPa | 0 mm | - | 88 W/m² | - |
| 1777530195 | 8.33° C | 59% | 1029.6 hPa | 0 mm | - | 292 W/m² | - |
| 1777529893 | 7.78° C | 60% | 1029.6 hPa | 0 mm | - | 279 W/m² | - |
| 1777529590 | 7.78° C | 61% | 1029.6 hPa | 0 mm | - | 264 W/m² | - |
| 1777529289 | 7.22° C | 62% | 1029.6 hPa | 0 mm | - | 237 W/m² | - |
| 1777528987 | 7.22° C | 63% | 1029.6 hPa | 0 mm | - | 207 W/m² | - |
| 1777528687 | 6.67° C | 64% | 1029.6 hPa | 0 mm | - | 190 W/m² | - |
| 1777528384 | 6.67° C | 65% | 1029.6 hPa | 0 mm | - | 60 W/m² | - |
* Rain latest hour (hover to see other rain measurements)
** Current wind speed in m/s (hover to see current wind gust speed)